Regional Weather Roundup
Issued by NWS

Home | Current Version | Previous Version | Graphics & Text | Print | Product List | Glossary On
Versions: 1 2 3 4 5 6 7 8 9 10 11 12 13 14 15 16 17 18 19 20 21 22 23 24 25 26 27 28 29 30 31 32 33 34 35 36 37 38 39 40 41 42 43 44 45 46 47 48 49 50
000
ASUS43 KDTX 200301
RWRMI
MICHIGAN HOURLY REGIONAL WEATHER ROUNDUP
NATIONAL WEATHER SERVICE DETROIT/PONTIAC MI
1100 PM EDT TUE SEP 19 2017

NOTE: "FAIR" INDICATES FEW OR NO CLOUDS BELOW 12,000 FEET WITH NO
SIGNIFICANT WEATHER AND/OR OBSTRUCTION TO VISIBILITY.

MIZ047>049-052>055-059>063-066>070-074>076-081>083-200400-
SOUTHEAST LOWER MICHIGAN

CITY           SKY/WX    TMP DP  RH WIND       PRES   REMARKS
ADRIAN         CLOUDY    67  66  97 E5        29.97S FOG
ALMA           CLOUDY    65  63  92 NE6       29.99R FOG
ANN ARBOR      CLOUDY    68  68 100 NE3       29.97R FOG
BAD AXE        CLOUDY    66  65  94 CALM      30.00S FOG
CARO           CLOUDY    67  64  91 CALM      29.98S FOG
DETROIT CITY   CLOUDY    68  68 100 E3        29.98R FOG
DETROIT        CLOUDY    69  67  93 E5        29.97S FOG
FLINT          CLOUDY    67  65  93 E7        29.98R
GROSSE ILE     CLOUDY    67  66  96 NE3       29.96S FOG
HILLSDALE      CLOUDY    66  64  94 E5        29.96S FOG
HOWELL         HVY RAIN  66  65  97 CALM      29.98R

CITY           SKY/WX    TMP DP  RH WIND       PRES   REMARKS
JACKSON        CLOUDY    69  66  90 E6        29.96S FOG
LAMBERTVILLE   FOG       69  66  92 CALM      29.95S VSB 1
LANSING        LGT RAIN  66  64  93 E5        29.97S FOG
LAPEER         CLOUDY    67  66  96 CALM      29.99S FOG
MASON          CLOUDY    67  65  91 CALM      29.97R FOG
MONROE         MOCLDY    70  67  92 CALM      29.96R FOG
MT. CLEMENS    CLOUDY    69  69 100 E3        29.97R FOG
PONTIAC        CLOUDY    68  68 100 E5        29.97S FOG
PORT HOPE        N/A     67  66  97 SE3       29.98F
PORT HURON     CLOUDY    68  66  94 CALM      29.99S FOG
TRI CITIES     CLOUDY    67  67 100 NE7       29.99S
MIDLAND        CLOUDY    65  64  96 NE8       29.98F FOG
TROY           CLOUDY    69  67  95 E6        30.00S FOG
SAGINAW HB     CLOUDY    64  63  94 E5        29.98S FOG
$$
MIZ043>046-050>051-056>058-064>065-071>073-077>080-200400-
SOUTHWEST LOWER MICHIGAN

CITY           SKY/WX    TMP DP  RH WIND       PRES   REMARKS
BATTLE CREEK   LGT RAIN  67  66  97 E7        29.96R FOG
BENTON HARBOR  CLOUDY    69  64  84 CALM      29.94R
BIG RAPIDS     CLEAR     59  56  88 CALM      29.98R
COLDWATER      CLOUDY    67  67 100 CALM      29.96R
FREMONT        FAIR      64  62  95 E3        29.96R
HOLLAND        PTCLDY    65  60  84 E6        29.95S
GRAND RAPIDS   CLOUDY    67  63  87 E8        29.96R
IONIA          CLOUDY    67  64  90 NE7       29.96R
KALAMAZOO      CLOUDY    68  64  87 E3        29.95S FOG
LUDINGTON      CLEAR     56  55  95 CALM      29.96R
MARSHALL       CLOUDY    66  65  97 CALM      29.96R FOG
MOUNT PLEASANT CLOUDY    66  65  96 E5        29.98S
MUSKEGON       CLEAR     63  60  90 E3        29.95S
SOUTH HAVEN    CLOUDY    68  64  88 CALM      29.94S
$$
MIZ016>042-200400-
NORTHERN LOWER MICHIGAN

CITY           SKY/WX    TMP DP  RH WIND       PRES   REMARKS
ALPENA         CLOUDY    64  64 100 CALM      30.02F
BEAVER ISLAND  CLEAR     61  58  90 E8        30.00R
BELLAIRE       CLEAR     57  55  93 CALM      29.99S
CADILLAC       CLEAR     63  58  85 SE3       29.99S
CHARLEVOIX     CLEAR     64  56  78 SE6       30.02S
FRANKFORT      CLEAR     57  56  95 CALM      29.96S
GAYLORD        CLEAR     58  55  90 CALM      30.02R
GRAYLING       MOCLDY    60  57  89 E6        30.02R
HARBOR SPRINGS CLEAR     60  57  92 E7        30.01R
HOUGHTON LAKE  CLOUDY    64  60  87 E8        30.01S
MANISTEE       CLEAR     54  53  97 CALM      29.96R
OSCODA         CLOUDY    66  65  97 NW5       30.00S FOG
PELLSTON       CLEAR     55  55 100 CALM      30.02S FOG
ROGERS CITY    CLOUDY    62  60  93 E5        30.03S
TRAVERSE CITY  CLEAR     62  56  80 CALM      29.96S
$$
MIZ007>008-015-200400-
EASTERN UPPER MICHIGAN

CITY           SKY/WX    TMP DP  RH WIND       PRES   REMARKS
KINROSS        CLEAR     56  54  93 SE3       30.03S
MACKINAC ISLAN CLEAR     62  61  97 SE6       30.02S
NEWBERRY       CLEAR     55  54  97 SE6       30.01S
S. S. MARIE    CLEAR     59  55  87 E3        30.02F
MUNISING         N/A     58  53  84 VRB3      29.97F
$$
MIZ004>006-011>014-085-200400-
CENTRAL UPPER MICHIGAN

CITY           SKY/WX    TMP DP  RH WIND       PRES   REMARKS
MANISTIQUE     CLEAR     58  53  81 E6        29.98S
ESCANABA       CLEAR     60  58  92 E6        29.96F
MENOMINEE      CLEAR     62  59  90 E6        29.95F
SAWYER-GWINN   CLEAR     57  53  86 SE5       29.98F
$$
MIZ001>003-009>011-084-200400-
WESTERN UPPER MICHIGAN

CITY           SKY/WX    TMP DP  RH WIND       PRES   REMARKS
IRON MOUNTAIN  CLEAR     56  52  86 SE5       29.96S
HOUGHTON       CLEAR     60  55  83 E8        29.92F
COPPER HARBOR    N/A     64  52  64 S9G20     29.92F
IRONWOOD       CLOUDY    65  58  78 E12G22    29.85F
$$

ABBREVIATIONS USED IN REMARKS
   TC - TEMPERATURE IN CELSIUS
  WCI - WIND CHILL INDEX
   HX - HEAT INDEX
  VSB - VISIBILITY





USA.gov is the U.S. government's official web portal to all federal, state and local government web resources and services.